Location: George Washington National Forest Helicopter Landing Site
(38.6463°N, 79.0851°W)
Time: 01:13:27
(UTC-04:00)

Vanguard 2 Rocket - Visible Passes

Search period start: 21 August 2019 00:00
Search period end: 31 August 2019 00:00
Orbit: 553 x 3327 km, 32.9° (Epoch: 20 August)

Date Brightness Start Highest point End Pass type
(mag) Time Alt. Az. Time Alt. Az. Time Alt. Az.
21 Aug 9.3 03:01:29 35° SSE 03:03:10 36° SE 03:18:05 10° E visible
21 Aug 9.4 05:07:16 21° WSW 05:18:15 66° SSE 05:38:05 10° E visible
22 Aug 9.8 02:05:10 23° ESE 02:05:10 23° ESE 02:14:24 10° E visible
22 Aug 9.0 04:10:58 36° SSW 04:17:02 57° SSE 04:35:25 10° E visible
23 Aug 10.3 01:08:52 10° ESE 01:08:52 10° ESE 01:09:16 10° ESE visible
23 Aug 8.9 03:14:40 44° SSE 03:16:27 46° SSE 03:32:30 10° E visible
23 Aug 9.4 05:20:27 17° WSW 05:32:08 70° S 05:52:09 10° E visible
24 Aug 9.4 02:18:21 32° SE 02:18:21 32° SE 02:29:20 10° E visible
24 Aug 8.9 04:24:08 35° SW 04:30:47 64° SSE 04:49:31 10° E visible
25 Aug 10.0 01:22:03 16° ESE 01:22:03 16° ESE 01:25:45 10° E visible
25 Aug 8.6 03:27:51 51° S 03:30:00 55° SSE 03:46:41 10° E visible
25 Aug 9.3 05:33:38 14° WSW 05:46:08 72° S 06:06:09 10° E visible
26 Aug 9.0 02:31:34 41° SE 02:31:34 41° SE 02:43:46 10° E visible
26 Aug 9.0 04:37:21 31° WSW 04:44:43 69° S 05:03:34 10° E visible
27 Aug 9.7 01:35:17 22° ESE 01:35:17 22° ESE 01:40:47 10° E visible
27 Aug 8.5 03:41:05 53° SSW 03:43:48 63° SSE 04:00:46 10° E visible
27 Aug 9.3 05:46:53 10° W 06:00:10 70° S 06:20:04 10° ESE visible
28 Aug 8.7 02:44:50 50° SE 02:44:50 50° SE 02:57:58 10° E visible
28 Aug 9.0 04:50:38 27° WSW 04:58:44 70° S 05:17:33 10° E visible
29 Aug 9.5 01:48:37 27° ESE 01:48:37 27° ESE 01:55:16 10° E visible
29 Aug 8.4 03:54:25 51° SW 03:57:45 67° S 04:14:49 10° E visible
29 Aug 9.4 06:01:03 10° W 06:14:10 65° SSW 06:33:44 10° ESE visible
30 Aug 10.2 00:52:25 10° E 00:52:25 10° E 00:52:36 10° E visible
30 Aug 8.4 02:58:14 59° SE 02:58:14 59° SE 03:12:04 10° E visible
30 Aug 9.0 05:04:02 22° W 05:12:47 68° S 05:31:24 10° ESE visible
